Satellite: NOAA-11
Catalog number: 19531
Epoch time:      12034.29513879
Element set:     802
Inclination:      098.7379 deg
RA of node:       122.2661 deg
Eccentricity:    0.0010327
Arg of perigee:   248.8844 deg
Mean anomaly:     111.1244 deg
Mean motion:   14.14952164 rev/day
Decay rate:       1.88e-06 rev/day^2
Epoch rev:           20543
Checksum:              291

Satellite: NOAA-12
Catalog number: 21263
Epoch time:      12034.56111869
Element set:     291
Inclination:      098.7393 deg
RA of node:       056.7941 deg
Eccentricity:    0.0012895
Arg of perigee:   231.1805 deg
Mean anomaly:     128.8219 deg
Mean motion:   14.25475673 rev/day
Decay rate:        5.0e-07 rev/day^2
Epoch rev:            7737
Checksum:              307

Satellite: MET-3/5
Catalog number: 21655
Epoch time:      12034.53352314
Element set:     327
Inclination:      082.5546 deg
RA of node:       247.3106 deg
Eccentricity:    0.0012589
Arg of perigee:   302.7861 deg
Mean anomaly:     057.2031 deg
Mean motion:   13.17037761 rev/day
Decay rate:        5.1e-07 rev/day^2
Epoch rev:           98417
Checksum:              280

Satellite: MET-2/21
Catalog number: 22782
Epoch time:      12034.80106804
Element set:     328
Inclination:      082.5501 deg
RA of node:       139.1377 deg
Eccentricity:    0.0023032
Arg of perigee:   165.9138 deg
Mean anomaly:     194.2679 deg
Mean motion:   13.83676939 rev/day
Decay rate:       -6.0e-08 rev/day^2
Epoch rev:           93058
Checksum:              308

Satellite: OKEAN-4
Catalog number: 23317
Epoch time:      12034.89046284
Element set:     794
Inclination:      082.5419 deg
RA of node:       156.7235 deg
Eccentricity:    0.0023194
Arg of perigee:   075.8875 deg
Mean anomaly:     284.4916 deg
Mean motion:   14.83566645 rev/day
Decay rate:       8.37e-06 rev/day^2
Epoch rev:           93489
Checksum:              351

Satellite: NOAA-14
Catalog number: 23455
Epoch time:      12034.52003107
Element set:     774
Inclination:      098.8349 deg
RA of node:       119.6833 deg
Eccentricity:    0.0009411
Arg of perigee:   348.1844 deg
Mean anomaly:     011.9107 deg
Mean motion:   14.13874470 rev/day
Decay rate:        3.7e-07 rev/day^2
Epoch rev:           88176
Checksum:              298

Satellite: NOAA-15
Catalog number: 25338
Epoch time:      12034.45914932
Element set:     126
Inclination:      098.6790 deg
RA of node:       022.7219 deg
Eccentricity:    0.0011143
Arg of perigee:   136.8541 deg
Mean anomaly:     223.3515 deg
Mean motion:   14.25025550 rev/day
Decay rate:       -2.8e-07 rev/day^2
Epoch rev:           71366
Checksum:              278

Satellite: RESURS
Catalog number: 25394
Epoch time:      12033.95765585
Element set:    0026
Inclination:      098.3096 deg
RA of node:       029.3819 deg
Eccentricity:    0.0000743
Arg of perigee:   316.0481 deg
Mean anomaly:     044.0641 deg
Mean motion:   14.24271778 rev/day
Decay rate:        3.4e-07 rev/day^2
Epoch rev:           70515
Checksum:              291

Satellite: FENGYUN1
Catalog number: 25730
Epoch time:      12033.90385230
Element set:    0543
Inclination:      098.8362 deg
RA of node:       355.3329 deg
Eccentricity:    0.0021391
Arg of perigee:   030.5000 deg
Mean anomaly:     329.7410 deg
Mean motion:   14.09204435 rev/day
Decay rate:      1.296e-05 rev/day^2
Epoch rev:           65555
Checksum:              269

Satellite: OKEAN-0
Catalog number: 25860
Epoch time:      12033.91386708
Element set:    0553
Inclination:      097.9173 deg
RA of node:       359.4790 deg
Eccentricity:    0.0001180
Arg of perigee:   033.8735 deg
Mean anomaly:     326.2549 deg
Mean motion:   14.74074039 rev/day
Decay rate:       4.54e-06 rev/day^2
Epoch rev:           67464
Checksum:              317

Satellite: NOAA-16
Catalog number: 26536
Epoch time:      12034.47095006
Element set:     610
Inclination:      099.1141 deg
RA of node:       074.4014 deg
Eccentricity:    0.0011388
Arg of perigee:   103.0432 deg
Mean anomaly:     257.2013 deg
Mean motion:   14.12700301 rev/day
Decay rate:      -1.52e-06 rev/day^2
Epoch rev:           58601
Checksum:              234

Satellite: NOAA-17
Catalog number: 27453
Epoch time:      12034.29390664
Element set:     583
Inclination:      098.3530 deg
RA of node:       068.0535 deg
Eccentricity:    0.0011577
Arg of perigee:   187.8989 deg
Mean anomaly:     172.2010 deg
Mean motion:   14.24388661 rev/day
Decay rate:       -5.5e-07 rev/day^2
Epoch rev:           49955
Checksum:              330

Satellite: NOAA-18
Catalog number: 28654
Epoch time:      12034.32419292
Element set:      60
Inclination:      099.0288 deg
RA of node:       351.4167 deg
Eccentricity:    0.0014205
Arg of perigee:   171.1731 deg
Mean anomaly:     188.9700 deg
Mean motion:   14.11598812 rev/day
Decay rate:       -7.6e-07 rev/day^2
Epoch rev:           34553
Checksum:              296

